Indianapolis, IN

1:46 AM EST on December 14, 2017 (GMT -0500)
Indianapolis Terry

Weather History for KTYQ - February, 2012

Change the Weather History Date:

Friday, February 24, 2012

  Actual Average (KEYE) Record (KEYE)
Temperature  
Mean Temperature 36 °F -  
Max Temperature 41 °F 41 °F 72 °F (2017)
Min Temperature 29 °F 26 °F -7 °F (2015)
Degree Days  
Heating Degree Days 30    
Moisture  
Dew Point 31 °F    
Average Humidity 83    
Maximum Humidity 96    
Minimum Humidity 64    
Precipitation  
Precipitation 0.02 in - - ()
Sea Level Pressure  
Sea Level Pressure 29.61 in    
Wind  
Wind Speed 13 mph (West)    
Max Wind Speed 28 mph    
Max Gust Speed 40 mph    
Visibility 8 miles    
Events Rain , Snow    
Averages and records for this station are not official NWS values.
T = Trace of Precipitation, MM = Missing Value Source: NWS Daily Summary

Daily Weather History Graph

Daily Weather History Graph

Search for Another Location

Airport or City:

Trip Planner

Search our weather history database for the weather conditions in past years. The results will help you decide how hot, cold, wet, or windy it might be!

Date:

Astronomy

Feb. 24, 2012 Rise Set
Actual Time 7:26 AM EST 6:30 PM EST
Civil Twilight 6:59 AM EST 6:58 PM EST
Nautical Twilight 6:27 AM EST 7:29 PM EST
Astronomical Twilight 5:56 AM EST 8:00 PM EST
Moon 8:20 AM EST (2/24) 9:33 PM EST (2/24)
Length of Visible Light 11h 59m
Length of Day
11h 04m
Waxing Crescent, 7% of the Moon is Illuminated
Feb 24
Waxing Crescent
Feb 29
First Quarter
Mar 8
Full
Mar 14
Last Quarter
Mar 22
New

Hourly Weather History & Observations

Time (EST) Temp. Windchill Dew Point Humidity Pressure Visibility Wind Dir Wind Speed Gust Speed Precip Events Conditions
12:15 AM 40.1 °F 35.3 °F 37.9 °F 92% 29.39 in 7.0 mi NE 6.9 mph - N/A   Clear
12:35 AM 40.1 °F 35.3 °F 37.9 °F 92% 29.37 in 7.0 mi ENE 6.9 mph - N/A   Scattered Clouds
12:55 AM 39.7 °F 36.5 °F 37.9 °F 93% 29.38 in 7.0 mi East 4.6 mph - N/A   Scattered Clouds
1:15 AM 39.4 °F 36.1 °F 37.6 °F 93% 29.38 in 7.0 mi ENE 4.6 mph - N/A   Clear
1:35 AM 39.2 °F 33.6 °F 37.4 °F 93% 29.37 in 5.0 mi East 8.1 mph - N/A   Scattered Clouds
1:55 AM 39.2 °F 35.0 °F 37.4 °F 93% 29.36 in 5.0 mi East 5.8 mph - N/A   Scattered Clouds
2:15 AM 39.2 °F 35.9 °F 37.4 °F 93% 29.36 in 5.0 mi East 4.6 mph - N/A   Clear
2:35 AM 38.3 °F - 36.5 °F 93% 29.37 in 4.0 mi Calm Calm - N/A   Scattered Clouds
2:55 AM 37.9 °F 34.4 °F 36.5 °F 95% 29.37 in 3.0 mi ESE 4.6 mph - N/A   Scattered Clouds
3:15 AM 37.8 °F 33.3 °F 36.5 °F 95% 29.37 in 3.0 mi South 5.8 mph - N/A   Clear
3:35 AM 38.5 °F 33.4 °F 37.2 °F 95% 29.38 in 4.0 mi SSW 6.9 mph - N/A   Scattered Clouds
3:55 AM 39.7 °F 32.7 °F 38.7 °F 96% 29.39 in 5.0 mi SW 11.5 mph - N/A   Overcast
4:15 AM 41.0 °F 34.3 °F 39.4 °F 94% 29.36 in 7.0 mi WSW 11.5 mph 17.3 mph N/A   Overcast
4:35 AM 41.5 °F 34.2 °F 39.6 °F 93% 29.37 in 7.0 mi WSW 13.8 mph 21.9 mph N/A   Overcast
4:55 AM 41.9 °F 33.1 °F 39.6 °F 91% 29.38 in 7.0 mi WSW 19.6 mph 25.3 mph N/A   Overcast
5:15 AM 41.9 °F 34.6 °F 39.4 °F 91% 29.39 in 7.0 mi WSW 13.8 mph 25.3 mph N/A   Overcast
5:35 AM 41.4 °F 33.3 °F 39.0 °F 91% 29.40 in 10.0 mi WSW 16.1 mph 24.2 mph N/A   Overcast
5:55 AM 41.5 °F 33.5 °F 38.7 °F 89% 29.42 in 10.0 mi WSW 16.1 mph 24.2 mph N/A   Overcast
6:15 AM 41.4 °F 34.0 °F 38.3 °F 89% 29.40 in 10.0 mi WSW 13.8 mph 23.0 mph N/A   Overcast
6:35 AM 41.4 °F 34.0 °F 38.1 °F 88% 29.41 in 10.0 mi WSW 13.8 mph 21.9 mph N/A   Overcast
7:15 AM 38.5 °F 28.9 °F 32.5 °F 79% 29.44 in 10.0 mi WSW 18.4 mph 29.9 mph N/A   Overcast
7:35 AM 38.3 °F 27.8 °F 32.0 °F 78% 29.44 in 10.0 mi WSW 21.9 mph 31.1 mph N/A   Overcast
7:55 AM 37.9 °F 27.1 °F 32.0 °F 79% 29.46 in 10.0 mi WSW 23.0 mph 31.1 mph N/A   Overcast
8:15 AM 37.8 °F 27.4 °F 32.0 °F 80% 29.47 in 10.0 mi WSW 20.7 mph 35.7 mph N/A   Overcast
8:35 AM 37.6 °F 28.4 °F 32.0 °F 80% 29.48 in 10.0 mi WSW 16.1 mph 31.1 mph N/A   Overcast
8:55 AM 37.9 °F 27.1 °F 32.0 °F 79% 29.48 in 10.0 mi WSW 23.0 mph 32.2 mph N/A   Overcast
9:15 AM 37.9 °F 26.8 °F 32.0 °F 79% 29.49 in 10.0 mi WSW 24.2 mph 35.7 mph N/A   Overcast
9:55 AM 37.6 °F 26.1 °F 32.9 °F 83% 29.50 in 10.0 mi WSW 25.3 mph 32.2 mph N/A   Overcast
10:15 AM 37.4 °F 26.1 °F 32.0 °F 81% 29.52 in 10.0 mi West 24.2 mph 38.0 mph N/A   Overcast
10:35 AM 35.8 °F 24.5 °F 32.0 °F 86% 29.55 in 7.0 mi West 21.9 mph 36.8 mph N/A Snow Light Snow
10:55 AM 35.1 °F 23.5 °F 32.0 °F 89% 29.57 in 4.0 mi West 21.9 mph 29.9 mph N/A Snow Light Snow
11:15 AM 34.7 °F 23.7 °F 32.2 °F 91% 29.59 in 3.0 mi West 19.6 mph 27.6 mph N/A Rain Light Rain
11:35 AM 34.9 °F 23.0 °F 32.5 °F 91% 29.62 in 5.0 mi West 23.0 mph 27.6 mph N/A Rain Light Rain
11:55 AM 34.7 °F 23.4 °F 32.0 °F 90% 29.64 in 7.0 mi West 20.7 mph 28.8 mph N/A Snow Light Snow
12:15 PM 34.9 °F 22.5 °F 32.0 °F 89% 29.65 in 7.0 mi West 25.3 mph 33.4 mph N/A Snow Light Snow
12:35 PM 34.7 °F 22.8 °F 31.8 °F 89% 29.66 in 7.0 mi West 23.0 mph 35.7 mph N/A Snow Light Snow
1:15 PM 35.2 °F 24.4 °F 32.0 °F 88% 29.69 in 5.0 mi WNW 19.6 mph 34.5 mph N/A Snow Light Snow
6:15 PM 34.7 °F 23.1 °F 27.5 °F 75% 29.87 in 10.0 mi West 21.9 mph 31.1 mph N/A   Overcast
6:35 PM 34.2 °F 24.4 °F 27.3 °F 76% 29.88 in 10.0 mi West 15.0 mph 23.0 mph N/A   Mostly Cloudy
6:55 PM 34.0 °F 23.4 °F 27.5 °F 77% 29.89 in 10.0 mi West 17.3 mph 21.9 mph N/A   Mostly Cloudy
7:15 PM 33.8 °F 24.8 °F 27.7 °F 78% 29.90 in 10.0 mi West 12.7 mph 19.6 mph N/A   Overcast
7:35 PM 33.4 °F 23.1 °F 28.9 °F 84% 29.91 in 7.0 mi West 16.1 mph 20.7 mph N/A Snow Light Snow
7:55 PM 33.8 °F 20.8 °F 25.3 °F 71% 29.92 in 7.0 mi West 26.5 mph 40.3 mph N/A Snow Light Snow
8:15 PM 32.9 °F 21.6 °F 24.4 °F 71% 29.93 in 10.0 mi West 18.4 mph 39.1 mph N/A   Overcast
8:35 PM 32.2 °F 21.1 °F 23.9 °F 72% 29.94 in 10.0 mi West 17.3 mph 27.6 mph N/A   Mostly Cloudy
8:55 PM 32.0 °F 18.1 °F 22.1 °F 67% 29.95 in 10.0 mi West 27.6 mph 39.1 mph N/A   Overcast
9:15 PM 31.1 °F 17.2 °F 21.6 °F 68% 29.95 in 10.0 mi West 26.5 mph 36.8 mph N/A   Overcast
9:35 PM 30.9 °F 19.1 °F 20.8 °F 66% 29.95 in 10.0 mi West 18.4 mph 29.9 mph N/A   Overcast
9:55 PM 30.9 °F 17.8 °F 20.1 °F 64% 29.95 in 10.0 mi West 23.0 mph 32.2 mph N/A   Overcast
10:15 PM 30.7 °F 19.6 °F 20.7 °F 66% 29.96 in 10.0 mi WNW 16.1 mph 26.5 mph N/A   Overcast
10:35 PM 30.6 °F 19.0 °F 21.2 °F 68% 29.96 in 10.0 mi WNW 17.3 mph 26.5 mph N/A   Overcast
10:55 PM 30.4 °F 18.4 °F 21.0 °F 68% 29.96 in 10.0 mi WNW 18.4 mph 26.5 mph N/A   Overcast
11:15 PM 30.2 °F 17.8 °F 20.5 °F 67% 29.96 in 10.0 mi West 19.6 mph 31.1 mph N/A   Overcast
11:35 PM 30.2 °F 19.8 °F 21.0 °F 69% 29.96 in 10.0 mi WNW 13.8 mph 27.6 mph N/A   Overcast
11:55 PM 29.8 °F 17.0 °F 21.7 °F 72% 29.96 in 10.0 mi WNW 20.7 mph 28.8 mph N/A Snow Light Snow